Time,TemperatureF,DewpointF,PressureIn,WindDirection,WindDirectionDegrees,WindSpeedMPH,WindSpeedGustMPH,Humidity,HourlyPrecipIn,Conditions,Clouds,dailyrainin,SoftwareType,DateUTC
2014-12-21 00:02:00,52.0,48.0,30.16,North,-999,0.0,0.0,86,0.00,,,-99.99,,2014-12-21 08:02:00,
2014-12-21 00:21:00,53.0,48.0,30.15,North,-999,0.0,0.0,82,0.00,,,-99.99,,2014-12-21 08:21:00,
2014-12-21 00:32:00,53.0,48.0,30.15,North,-999,0.0,0.0,82,0.00,,,-99.99,,2014-12-21 08:32:00,
2014-12-21 00:52:00,53.0,48.0,30.15,SW,220,1.0,1.0,82,0.00,,,-99.99,,2014-12-21 08:52:00,
2014-12-21 01:02:00,53.0,48.0,30.15,SW,220,1.0,1.0,82,0.00,,,-99.99,,2014-12-21 09:02:00,
2014-12-21 01:21:00,53.0,48.0,30.14,North,-999,0.0,0.0,83,0.00,,,-99.99,,2014-12-21 09:21:00,
2014-12-21 01:33:00,53.0,48.0,30.14,North,-999,0.0,0.0,83,0.00,,,-99.99,,2014-12-21 09:33:00,
2014-12-21 01:53:00,53.0,49.0,30.15,North,-999,0.0,0.0,85,0.00,,,-99.99,,2014-12-21 09:53:00,
2014-12-21 02:03:00,53.0,49.0,30.15,North,-999,0.0,0.0,85,0.00,,,-99.99,,2014-12-21 10:03:00,
2014-12-21 02:23:00,53.0,48.0,30.15,North,-999,0.0,0.0,82,0.00,,,-99.99,,2014-12-21 10:23:00,
2014-12-21 02:33:00,53.0,48.0,30.15,North,-999,0.0,0.0,82,0.00,,,-99.99,,2014-12-21 10:33:00,
2014-12-21 02:53:00,54.0,47.0,30.15,WSW,240,3.0,3.0,76,0.00,,,-99.99,,2014-12-21 10:53:00,
2014-12-21 03:03:00,54.0,47.0,30.15,WSW,240,3.0,3.0,76,0.00,,,-99.99,,2014-12-21 11:03:00,
2014-12-21 03:22:00,54.0,47.0,30.14,North,-999,0.0,0.0,76,0.00,,,-99.99,,2014-12-21 11:22:00,
2014-12-21 03:33:00,54.0,47.0,30.14,North,-999,0.0,0.0,76,0.00,,,-99.99,,2014-12-21 11:33:00,
2014-12-21 03:53:00,54.0,45.0,30.12,West,260,8.0,10.0,72,0.00,,,-99.99,,2014-12-21 11:53:00,
2014-12-21 04:02:00,54.0,45.0,30.12,West,260,8.0,10.0,72,0.00,,,-99.99,,2014-12-21 12:02:00,
2014-12-21 04:23:00,54.0,45.0,30.11,West,270,4.0,4.0,72,0.00,,,-99.99,,2014-12-21 12:23:00,
2014-12-21 04:32:00,54.0,45.0,30.11,West,270,4.0,4.0,72,0.00,,,-99.99,,2014-12-21 12:32:00,
2014-12-21 04:53:00,54.0,45.0,30.10,West,270,4.0,5.0,72,0.00,,,-99.99,,2014-12-21 12:53:00,
2014-12-21 05:02:00,54.0,45.0,30.10,West,270,4.0,5.0,72,0.00,,,-99.99,,2014-12-21 13:02:00,
2014-12-21 05:22:00,54.0,45.0,30.11,West,270,4.0,4.0,72,0.00,,,-99.99,,2014-12-21 13:22:00,
2014-12-21 05:32:00,54.0,45.0,30.11,West,270,4.0,4.0,72,0.00,,,-99.99,,2014-12-21 13:32:00,
2014-12-21 05:52:00,54.0,46.0,30.12,North,-999,0.0,0.0,74,0.00,,,-99.99,,2014-12-21 13:52:00,
2014-12-21 06:02:00,54.0,46.0,30.12,North,-999,0.0,0.0,74,0.00,,,-99.99,,2014-12-21 14:02:00,
2014-12-21 06:21:00,54.0,46.0,30.13,WSW,250,1.0,1.0,74,0.00,,,-99.99,,2014-12-21 14:21:00,
2014-12-21 06:32:00,54.0,46.0,30.13,WSW,250,1.0,1.0,74,0.00,,,-99.99,,2014-12-21 14:32:00,
2014-12-21 06:52:00,56.0,47.0,30.13,West,260,4.0,6.0,71,0.00,,,-99.99,,2014-12-21 14:52:00,
2014-12-21 07:02:00,56.0,47.0,30.13,West,260,4.0,6.0,71,0.00,,,-99.99,,2014-12-21 15:02:00,
2014-12-21 07:22:00,56.0,46.0,30.14,North,-999,0.0,0.0,70,0.00,,,-99.99,,2014-12-21 15:22:00,
2014-12-21 07:33:00,56.0,46.0,30.14,North,-999,0.0,0.0,70,0.00,,,-99.99,,2014-12-21 15:33:00,
2014-12-21 07:53:00,56.0,46.0,30.13,West,280,5.0,7.0,68,0.00,,,-99.99,,2014-12-21 15:53:00,
2014-12-21 08:03:00,56.0,46.0,30.13,West,280,5.0,7.0,68,0.00,,,-99.99,,2014-12-21 16:03:00,
2014-12-21 08:23:00,56.0,46.0,30.14,West,280,2.0,3.0,68,0.00,,,-99.99,,2014-12-21 16:23:00,
2014-12-21 08:32:00,56.0,46.0,30.14,West,280,2.0,3.0,68,0.00,,,-99.99,,2014-12-21 16:32:00,
2014-12-21 08:53:00,57.0,46.0,30.14,West,280,8.0,8.0,66,0.00,,,-99.99,,2014-12-21 16:53:00,
2014-12-21 09:03:00,57.0,46.0,30.14,West,280,8.0,8.0,66,0.00,,,-99.99,,2014-12-21 17:03:00,
2014-12-21 09:22:00,57.0,47.0,30.15,North,-999,0.0,0.0,68,0.00,,,-99.99,,2014-12-21 17:22:00,
2014-12-21 09:32:00,57.0,47.0,30.15,North,-999,0.0,0.0,68,0.00,,,-99.99,,2014-12-21 17:32:00,
2014-12-21 09:53:00,58.0,47.0,30.16,West,270,1.0,1.0,66,0.00,,,-99.99,,2014-12-21 17:53:00,
2014-12-21 10:02:00,58.0,47.0,30.16,West,270,1.0,1.0,66,0.00,,,-99.99,,2014-12-21 18:02:00,
2014-12-21 10:22:00,58.0,47.0,30.16,West,260,4.0,4.0,66,0.00,,,-99.99,,2014-12-21 18:22:00,
2014-12-21 10:33:00,58.0,47.0,30.16,West,260,4.0,4.0,66,0.00,,,-99.99,,2014-12-21 18:33:00,